バーナード-ボアッティーニ彗星

206P/Barnard-Boattini (2008)

English version
Home page
Total 6,336 html files since Dec. 4, 1995
Updated on November 9, 2008

---------------------------------------------------------------------

・ プロフィール

符号 206P/2008 T3
再発見日 2008年10月7日
再発見光度 17.5等
再発見者 A. Boattini (Catalina Sky Survey)

・ 写真集

・ 軌道要素

Epoch 2008 Oct. 21.0 TT = JDT 2454760.5
T 2008 Oct. 25.09199 TT                                 MPC
q   1.1451967            (2000.0)            P               Q
n   0.16906991     Peri.  181.42437     +0.90377283     -0.36576879
a   3.2391061      Node   204.13485     +0.39787317     +0.90938662
e   0.6464467      Incl.   32.93047     +0.15777079     -0.19806355
P   5.83
From 160 observations 1892-2008, mean residual 1".6.

・ 星図

・ 光度変化

        m1 = 19.2 + 5 logΔ + 10.0 log r

---------------------------------------------------------------------

軌道要素はM.P.E.C. 2008-U25に掲載されたものです。
星図はステラナビゲータ Ver.8 (アストロアーツ) で作成したものです。
光度グラフはComet for Windowsで作成したものです。

---------------------------------------------------------------------

Copyright(C) 1995-2008 Seiichi Yoshida (comet@aerith.net). All rights reserved.